Miscellaneous Local Product
Issued by NWS North Platte, NE

Home | Current Version | Previous Version | Text Only | Print | Product List | Glossary On
Versions: 1 2 3 4 5 6 7 8 9 10 11 12 13 14 15 16 17 18 19 20 21 22 23 24 25 26 27 28 29 30 31 32 33 34 35 36 37 38 39 40 41 42 43 44 45 46 47 48 49 50
937
AXUS43 KLBF 231510
MISLBF


WESTERN AND NORTH CENTRAL NEBRASKA HOURLY WEATHER ROUNDUP
NATIONAL WEATHER SERVICE NORTH PLATTE NE
1000 AM CDT SAT SEP 23 2017

NOTE: "FAIR" INDICATES FEW OR NO CLOUDS BELOW 12,000 FEET WITH NO
SIGNIFICANT WEATHER AND/OR OBSTRUCTIONS TO VISIBILITY.

NOTE: STATIONS NOT REPORTING VARIABLES SUCH AS SKY/WEATHER OR
PRESSURE ARE PROVIDED BY RAWS AND APRS NETWORKS AND ARE NOT UNDER
NATIONAL WEATHER SERVICE QUALITY CONTROL.

...OBSERVATIONS IN AND NEAR THE EASTERN PANHANDLE OF NEBRASKA...

CITY           SKY/WX    TMP DP  RH WIND       PRES   REMARKS
PINE RIDGE     CLOUDY    46  43  89 N7        30.05R
GORDON         CLOUDY    44  43  97 N8        30.04R FOG
CHADRON        CLOUDY    45  42  89 N8        30.06S
ALLIANCE       CLOUDY    44  42  93 N13       30.01F FOG
SIDNEY         CLOUDY    45  44  97 N9        29.99R FOG
CRESCENT LAKE    N/A     45  45 100 N8          N/A
$$

...OBSERVATIONS IN NORTHERN NEBRASKA AND FAR SOUTHERN SOUTH DAKOTA...

CITY           SKY/WX    TMP DP  RH WIND       PRES   REMARKS
WINNER         LGT RAIN  52  50  93 N12       30.02S
VALENTINE      LGT RAIN  49  47  93 N10       30.02S FOG
THEDFORD       CLOUDY    49  48  97 N10       30.00R FOG
AINSWORTH      CLOUDY    49  49 100 N12       30.01R FOG
O`NEILL        CLOUDY    54  54  99 N8        30.00R FOG
ORD            CLOUDY    59  53  80 N7        29.94R
BROKEN BOW     CLOUDY    54  50  86 N8        29.95S
VALENTINE NWR    N/A     47  46  97 N8          N/A
HALSEY           N/A     48  48 100 N5          N/A
BUTTE            N/A     51  49  94 N7          N/A
CHAMBERS         N/A     56  53  91 N3          N/A
EWING            N/A     57  54  89 N3          N/A
$$

...OBSERVATIONS IN SOUTHWEST NEBRASKA AND FAR NORTHEAST COLORADO...

CITY           SKY/WX    TMP DP  RH WIND       PRES   REMARKS
WRAY           CLOUDY    50  50 100 N12       29.96R FOG
HOLYOKE        CLOUDY    52  46  82 N14       29.96F FOG
IMPERIAL       CLOUDY    53  48  83 N17       29.92F
OGALLALA       CLOUDY    50  49  94 NE10      29.97S
NORTH PLATTE   CLOUDY    53  51  93 NE12      29.95R
MCCOOK         PTSUNNY   74  65  73 S10       29.87F
LEXINGTON      CLOUDY    65  58  77 NE6       29.92S
STAPLETON        N/A     48  47  96 CALM        N/A
GOTHENBURG       N/A     58  50  76 N3          N/A
CALLAWAY         N/A     55  52  91 NE7         N/A
$$

...OBSERVATIONS IN CENTRAL LINCOLN COUNTY AREA...

CITY           SKY/WX    TMP DP  RH WIND       PRES   REMARKS
N.P. AIRPORT   CLOUDY    53  51  93 NE12      29.95R
N.P. DOWNTOWN    N/A     51  49  94 NE6         N/A
N.P. SOUTHEAST   N/A     51  49  93 NE3G13      N/A
N.P. HILLCREST   N/A     51  50  96 NE12G20     N/A
$$

...SOME OBSERVATIONS FROM AROUND THE REGION...

CITY           SKY/WX    TMP DP  RH WIND       PRES   REMARKS
DENVER         CLOUDY    47  41  80 N7        30.01S
LIMON            N/A    N/A N/A N/A MISG      29.98R
ASPEN          CLOUDY    49  37  63 N5        29.97R
LARAMIE        CLOUDY    43  38  82 S10       30.02R
CASPER         LGT RAIN  40  39  97 NE8       30.03R WCI  34
CHEYENNE       CLOUDY    43  36  76 NE5       30.01S
SCOTTSBLUFF    CLOUDY    45  42  89 CALM      30.03R FOG
GRAND ISLAND   MOSUNNY   75  67  76 S9        29.93F
OMAHA          PTSUNNY   80  67  64 S14       29.97S
SIOUX FALLS    CLOUDY    65  63  93 E7        29.97R
PIERRE         CLOUDY    50  47  89 N14       30.02R
RAPID CITY     CLOUDY    45  43  93 N22       30.03F
BISMARCK       CLOUDY    50  47  89 N8        30.09F
KANSAS CITY    MOSUNNY   80  70  71 S10       30.04R
HILL CITY      MOSUNNY   77  66  68 S12G20    29.90R
WICHITA        MOSUNNY   81  68  64 S20       29.98R
DODGE CITY     SUNNY     77  65  66 S22       29.92F
OKLAHOMA CITY  MOSUNNY   77  68  73 S14       29.99S
DALLAS         SUNNY     82  71  69 S8        29.96R
$$




USA.gov is the U.S. government's official web portal to all federal, state and local government web resources and services.